FLYING LAPTOP (42831 NORAD) Tracking and Keplerian Element Data

This shows tracking and keplerian element data for the satellite.

Feedback or suggestion? Click here.




ElementValue
Catalog42831
NameFLYING LAPTOP
Epoch Orbit10143
Epoch Day146.17647307
Epoch Year2019
RAAN40.0975
Inclination97.5676
Eccentricity0.0015148
Argument of Perigee133.972
Mean Anonmoly226.2751
Mean Motion14.90995741
Decay Rate1.89E-06
L11 42831U 17042G 19146.17647307 .00000189 00000-0 24482-4 0 9990
L22 42831 97.5676 40.0975 0015148 133.9720 226.2751 14.90995741101432

Live tracking and technical data element details for FLYING LAPTOP (NORAD 42831). FLYING LAPTOP can be tracked NOW for your location showing map with azimuth and elevation plus other details from your city location.

Track the satellite on the map from your city or location and see movement details for azimuth, elevation, latitude, longitude, range, height, and movement on the map or in text.







IsCatalogInMostPopularTable: catalog: 42831, numindb: 220
Update: records affected: 1



GetName: 42831 FLYING LAPTOP

Hit Count: updated at: Sun, 26 May 2019 19:31:13 GMT